User: anonymous   Login
Location: Unspecified
(0.0000°N, 0.0000°E)
Time: 14:49:36
(UTC+00:00)
Language:

Eole - Orbit

View from above orbital plane
View from above orbital plane
View from above satellite
View from above satellite

Ground track
Ground track

The orbit data is extracted from the following two-line orbital elements,

1  5435U 71071A   17206.05257521 -.00000128 +00000-0 +15458-4 0  9995
2  5435 050.1424 046.8243 0110362 245.1542 113.7877 14.55009292423109
Epoch (UTC): 25 July 2017 01:15:42
Eccentricity: 0.0110362
inclination: 50.1424°
perigee height: 631 km
apogee height: 787 km
right ascension of ascending node: 46.8243°
argument of perigee: 245.1542°
revolutions per day: 14.55009292
mean anomaly at epoch: 113.7877°
orbit number at epoch: 42310

The dashed part of the orbit path shows where the satellite is in the earth's shadow,  

DLR